Location: Unspecified
(0.0000°N, 0.0000°E)
Time: 16:00:02
(UTC+00:00)

Vanguard 2 Rocket - Visible Passes

Search period start: 16 April 2014 00:00
Search period end: 26 April 2014 00:00
Orbit: 555 x 3337 km, 32.9° (Epoch: 15 April)

Date Brightness Start Highest point End Pass type
(mag) Time Alt. Az. Time Alt. Az. Time Alt. Az.
16 Apr 10.6 02:15:38 20° S 02:16:57 20° S 02:29:52 10° SE visible
16 Apr 10.2 04:22:25 10° SW 04:40:12 37° SSE 04:53:38 10° E visible
16 Apr 7.6 18:12:21 10° NW 18:17:28 47° NE 18:26:01 10° ESE visible
16 Apr 8.7 20:24:55 10° W 20:32:01 42° SSW 20:33:27 41° S visible
17 Apr 10.9 01:20:59 15° SSE 01:20:59 15° SSE 01:26:32 10° SE visible
17 Apr 10.4 03:26:56 18° SSW 03:38:46 30° SSE 03:53:02 10° ESE visible
17 Apr 9.6 05:39:57 10° SW 05:59:20 63° SSE 06:11:41 10° ENE visible
17 Apr 7.9 19:27:02 10° WNW 19:33:08 58° SSW 19:38:59 26° SE visible
17 Apr 10.0 21:42:51 10° WSW 21:44:56 16° SW 21:44:56 16° SW visible
18 Apr 10.5 02:32:20 23° S 02:36:54 25° SSE 02:51:12 10° ESE visible
18 Apr 9.9 04:39:21 10° SW 04:58:45 50° SSE 05:12:42 10° ENE visible
18 Apr 7.2 18:29:34 10° NW 18:34:48 88° SW 18:43:59 10° SE visible
18 Apr 9.3 20:43:52 10° WSW 20:50:26 27° SSW 20:50:26 27° SSW visible
19 Apr 10.7 01:37:47 20° SSE 01:37:47 20° SSE 01:48:01 10° ESE visible
19 Apr 10.2 03:43:44 19° SSW 03:57:40 40° SSE 04:12:51 10° E visible
19 Apr 8.7 19:45:25 10° W 19:51:17 33° SSW 19:55:54 23° SSE visible
20 Apr 11.0 00:43:16 11° SE 00:43:16 11° SE 00:43:45 10° SE visible
20 Apr 10.3 02:49:14 27° S 02:56:10 32° SSE 03:11:52 10° E visible
20 Apr 9.6 04:56:23 10° SW 05:16:47 69° SE 05:31:00 10° ENE visible
20 Apr 7.9 18:47:25 10° WNW 18:52:34 45° SSW 19:01:11 10° SE visible
20 Apr 9.8 21:03:50 10° SW 21:07:16 16° SSW 21:07:16 16° SSW visible
21 Apr 10.5 01:54:45 26° SSE 01:54:45 26° SSE 02:09:31 10° ESE visible
21 Apr 9.9 04:00:43 21° SW 04:15:58 55° SSE 04:31:45 10° ENE visible
21 Apr 9.3 20:04:45 10° WSW 20:09:51 20° SSW 20:12:39 18° S visible
22 Apr 10.8 01:00:17 16° SE 01:00:17 16° SE 01:05:40 10° ESE visible
22 Apr 10.1 03:06:15 32° SSW 03:14:45 44° SSE 03:31:33 10° E visible
22 Apr 9.5 05:13:42 10° SW 05:34:23 88° NW 05:48:41 10° NE visible
22 Apr 8.8 19:06:06 10° WSW 19:10:46 24° SSW 19:17:40 10° SSE visible
23 Apr 10.2 02:11:48 34° SSE 02:13:20 34° SSE 02:30:09 10° E visible
23 Apr 9.6 04:17:46 22° SW 04:33:46 74° SE 04:49:54 10° ENE visible
23 Apr 9.8 20:25:43 10° SSW 20:28:46 12° S 20:29:13 12° S visible
24 Apr 10.6 01:17:20 24° SE 01:17:20 24° SE 01:27:18 10° ESE visible
24 Apr 9.8 03:23:18 38° SSW 03:32:47 59° SE 03:50:18 10° ENE visible
24 Apr 9.5 05:31:32 10° WSW 05:51:43 66° NW 06:05:54 10° NE visible
24 Apr 9.4 19:26:12 10° SW 19:29:19 13° SSW 19:33:10 10° SSE visible
25 Apr 9.9 02:28:50 45° SSE 02:31:36 46° SSE 02:49:43 10° E visible
25 Apr 9.5 04:34:47 21° WSW 04:51:15 84° NW 05:07:27 10° NE visible
25 Apr 8.9 18:27:04 10° WSW 18:30:23 17° SSW 18:34:40 10° SSE visible
